Location: Il Ritiro
(43.4167°N, 13.1333°E)
Time: 17:13:22
(UTC+00:00)

Cosmos 44 - Pass Details

Date: 05 July 2020
Orbit: 586 x 775 km, 65.1° (Epoch: 10 August)

Event Time Altitude Azimuth Distance (km) Brightness Sun altitude
Exits shadow 22:05:17 36° 88° (E) 940 3.8 -22.1°
Drops below altitude 10° 22:08:33 10° 47° (NE) 1,952 5.9 -22.3°
Sets 22:10:56 0° 40° (NE) 2,882 7.0 -22.4°
